Location: ????
(55.2778°N, 39.2433°E)
Time: 13:28:16
(UTC+00:00)

Cosmos 1766 - Visible Passes

Search period start: 20 July 2024 00:00
Search period end: 30 July 2024 00:00
Orbit: 483 x 500 km, 82.5° (Epoch: 20 July)

Date Brightness Start Highest point End Pass type
(mag) Time Alt. Az. Time Alt. Az. Time Alt. Az.
23 Jul 6.1 00:13:02 10° ESE 00:14:30 12° E 00:15:56 10° ENE visible
27 Jul 5.2 00:16:01 10° SE 00:19:05 25° E 00:22:10 10° NNE visible
27 Jul 5.6 23:53:57 10° SE 23:56:34 19° E 23:59:12 10° NE visible
28 Jul 5.9 23:32:08 10° ESE 23:34:04 14° E 23:35:59 10° NE visible
